Airfield :
LOGIN :

Register | Disclaimer

   EN    FR    IT 

 










Legend :    VFR   Marginal VFR   IFR   Intensive IFR   Very Intensive IFR
Visi :
Ceiling :
>= 8 km
>= 3000ft
5 to 8 km
1000 to 3000 ft
1500m to 5 km
500 to 1000 ft
800 to 1500m
200 to 500 ft
< 800m
< 200 ft
Symbols :   Thunderstorms  Fog  Heavy snow  Heavy precipitations  Wind > 20 kt
SIGMETs :     Misc.  Thunderstorms  Icing  Turbulence  Mountain Waves  Volcanic Ashes







- Airport Elevation : 184 ft
- IATA code : BRU


EBBR - Bruxelles

CURRENT METAR :
  • 271250Z 05007KT 360V100 CAVOK 23/13 Q1028 NOSIG

EXPIRED METARs :
  • 271220Z 06007KT 030V090 CAVOK 23/13 Q1028 NOSIG
  • 271150Z 05007KT 010V100 CAVOK 22/13 Q1028 NOSIG
  • 271120Z 05007KT 030V090 CAVOK 22/13 Q1028 NOSIG
  • 271050Z 05006KT 020V080 CAVOK 22/14 Q1028 NOSIG
  • 271020Z 04007KT 010V070 CAVOK 20/12 Q1028 NOSIG

TAF TAF EBBR
Valid from the 27 at 12:00 until the 28 at 18:00 UTC


271110Z 2712/2818 04009KT CAVOK
No reported NOTAMs for that airfield.



MET'MAP, your aeronautical weather chart ! - Copyright ORBIFLY December 2007 - Disclaimer

ORBIFLY MET'MAP TEAM :

Programming & Development : Alexandra Zaïnal
Concept & Development : Baudouin d'Aumeries
Co-Development & Prog : Marc-Olivier Méhu
Technical & hardware support : Manuel Goepfert

Contact : metmap@orbifly.com




SOURCES & CREDITS :

   NOAA